Regional Weather Roundup
Issued by NWS State College, PA

Home | Current Version | Previous Version | Text Only | Print | Product List | Glossary Off
Versions: 1 2 3 4 5 6 7 8 9 10 11 12 13 14 15 16 17 18 19 20 21 22 23 24 25 26 27 28 29 30 31 32 33 34 35 36 37 38 39 40 41 42 43 44 45 46 47 48 49 50

000
ASUS41 KCTP 211810
RWRCTP

REGIONAL WEATHER ROUNDUP
NATIONAL WEATHER SERVICE STATE COLLEGE PA
100 PM EST SUN JAN 21 2018

Note: "fair" indicates few or no clouds below 12,000 feet with no
significant weather and/or obstructions to visibility.

* = STATION THAT DOES NOT REPORT PRECIPITATION /E.G. RAIN...SNOW...ETC/
    THUNDER OR FOG.

PAZ002>004-007>009-013>016-020>023-029>032-211900-
WESTERN PENNSYLVANIA

CITY           SKY/WX    TMP DP  RH WIND       PRES   REMARKS
ERIE           CLOUDY    42  38  85 S9        30.06F
MEADVILLE      FOG       39  39 100 CALM      30.05F VSB<1/4
FRANKLIN*      LGT RAIN  39  38  96 S7        30.07F VSB<1/4
NEW CASTLE     CLOUDY    44  44 100 S5        30.08F
BEAVER COUNTY  NOT AVBL
BUTLER*        CLOUDY    43  42  97 S6        30.09F FOG
PITTSBURGH INT CLOUDY    48  42  80 S7        30.08F
PITTSBURGH     CLOUDY    47  41  80 S12       30.09F
INDIANA*       FOG       43  43 100 SW3       30.14F VSB 0
LATROBE        CLOUDY    48  46  93 SW8       30.12F
WASHINGTON CO* CLOUDY    50  42  74 SW12      30.12F
$$

PAZ004>006-010>012-017>019-024>028-033>037-041-042-045-046-049>053-211900-
CENTRAL PENNSYLVANIA

CITY           SKY/WX    TMP DP  RH WIND       PRES   REMARKS
BRADFORD       CLOUDY    38  37  97 SW5       30.05F FOG
DUBOIS           N/A    N/A N/A N/A MISG      30.07F
CLEARFIELD     FOG       40  40 100 CALM      30.09F VSB 1/4
JOHNSTOWN      FOG       44  43  96 W9        30.09F VSB 1/4
ALTOONA        CLOUDY    45  44  97 SW5       30.11F
STATE COLLEGE  FOG       41  39  93 CALM      30.12F VSB 1
WILLIAMSPORT   CLOUDY    37  32  82 CALM      30.14F
SELINSGROVE    CLOUDY    39  32  76 CALM      30.15F
FT INDIANTOWN  CLOUDY    44  38  81 CALM      30.15F
CAPITAL CITY   CLOUDY    45  35  68 CALM      30.15F
HARRISBURG     CLOUDY    40  34  79 CALM      30.15F
YORK           CLOUDY    51  40  65 S3        30.15F
$$

PAZ038>040-043-044-047-048-054-055-060>062-067>071-211900-
EASTERN PENNSYLVANIA

CITY           SKY/WX    TMP DP  RH WIND       PRES   REMARKS
SCRANTON       CLOUDY    40  31  70 CALM      30.13F
MOUNT POCONO   CLOUDY    40  33  76 W13       30.10F
ALLENTOWN      CLOUDY    50  35  56 VRB7      30.15F
QUAKERTOWN*    CLOUDY    48  37  66 MISG      30.16F
READING        CLOUDY    48  39  71 CALM      30.15F
LANCASTER      CLOUDY    45  39  79 E3        30.15F HAZE
COATESVILLE    CLOUDY    48  37  66 CALM      30.17F
POTTSTOWN      CLOUDY    48  36  63 W5        30.17F
BLUE BELL      CLOUDY    48  36  61 NW6       30.18F
DOYLESTOWN     CLOUDY    50  35  56 W5        30.14F
WILLOW GROVE   NOT AVBL
NORTH PHILA    CLOUDY    53  36  52 W3        30.18F
PHILADELPHIA   CLOUDY    52  36  54 NW3       30.17F
$$



USA.gov is the U.S. government's official web portal to all federal, state and local government web resources and services.